Location: Azul
(36.7830°S, 59.8500°W)
Time: 20:54:32
(UTC-03:00)

ISS - Pass Details

Date: 12 July 2019
Orbit: 409 x 418 km, 51.6° (Epoch: 23 July)

Event Time Altitude Azimuth Distance (km) Brightness Sun altitude
Rises 19:15:41 0° 237° (WSW) 2,394 0.7 -14.9°
Reaches altitude 10° 19:17:53 10° 245° (WSW) 1,522 -0.2 -15.4°
Maximum altitude 19:21:05 37° 313° (NW) 672 -2.2 -16.0°
Drops below altitude 10° 19:24:14 10° 23° (NNE) 1,504 -1.0 -16.6°
Enters shadow 19:25:46 - 29° (NNE) 2,106 -0.3 -16.9°
